Time,TemperatureF,DewpointF,PressureIn,WindDirection,WindDirectionDegrees,WindSpeedMPH,WindSpeedGustMPH,Humidity,HourlyPrecipIn,Conditions,Clouds,dailyrainin,SolarRadiationWatts/m^2,SoftwareType,DateUTC
2013-12-14 00:03:00,-4.4,-9.0,30.48,South,181,1.0,1.0,81,0.00,,,0.00,0,weatherlink.com 1.10,2013-12-14 05:03:00,
2013-12-14 00:18:00,-5.6,-10.0,30.49,South,180,1.0,2.0,80,0.00,,,0.00,0,weatherlink.com 1.10,2013-12-14 05:18:00,
2013-12-14 00:33:00,-6.1,-11.0,30.49,South,178,0.0,2.0,81,0.00,,,0.00,0,weatherlink.com 1.10,2013-12-14 05:33:00,
2013-12-14 00:48:00,-5.5,-10.0,30.49,South,175,0.0,1.0,82,0.00,,,0.00,0,weatherlink.com 1.10,2013-12-14 05:48:00,
2013-12-14 01:03:00,-5.1,-9.0,30.49,NNE,13,0.0,2.0,83,0.00,,,0.00,0,weatherlink.com 1.10,2013-12-14 06:03:00,
2013-12-14 01:19:00,-4.9,-9.0,30.49,ESE,102,1.0,2.0,83,0.00,,,0.00,0,weatherlink.com 1.10,2013-12-14 06:19:00,
2013-12-14 01:34:00,-5.8,-10.0,30.50,SE,132,1.0,2.0,83,0.00,,,0.00,0,weatherlink.com 1.10,2013-12-14 06:34:00,
2013-12-14 01:49:00,-6.1,-10.0,30.51,SSE,154,2.0,2.0,83,0.00,,,0.00,0,weatherlink.com 1.10,2013-12-14 06:49:00,
2013-12-14 02:04:00,-6.9,-11.0,30.51,SE,134,1.0,2.0,82,0.00,,,0.00,0,weatherlink.com 1.10,2013-12-14 07:04:00,
2013-12-14 02:19:00,-7.2,-11.0,30.51,ENE,65,1.0,3.0,82,0.00,,,0.00,0,weatherlink.com 1.10,2013-12-14 07:19:00,
2013-12-14 02:34:00,-6.9,-11.0,30.52,ESE,119,3.0,3.0,82,0.00,,,0.00,0,weatherlink.com 1.10,2013-12-14 07:34:00,
2013-12-14 02:49:00,-7.2,-12.0,30.52,ESE,112,1.0,3.0,81,0.00,,,0.00,0,weatherlink.com 1.10,2013-12-14 07:49:00,
2013-12-14 03:04:00,-7.0,-11.0,30.52,NE,49,0.0,3.0,82,0.00,,,0.00,0,weatherlink.com 1.10,2013-12-14 08:04:00,
2013-12-14 03:19:00,-6.8,-11.0,30.53,ENE,71,1.0,3.0,81,0.00,,,0.00,0,weatherlink.com 1.10,2013-12-14 08:19:00,
2013-12-14 03:34:00,-7.1,-11.0,30.53,SSE,148,1.0,2.0,81,0.00,,,0.00,0,weatherlink.com 1.10,2013-12-14 08:34:00,
2013-12-14 03:49:00,-7.1,-11.0,30.53,ESE,105,1.0,3.0,81,0.00,,,0.00,0,weatherlink.com 1.10,2013-12-14 08:49:00,
2013-12-14 04:04:00,-6.8,-11.0,30.54,SSE,148,2.0,2.0,81,0.00,,,0.00,0,weatherlink.com 1.10,2013-12-14 09:04:00,
2013-12-14 04:19:00,-7.0,-11.0,30.55,SSE,168,1.0,2.0,81,0.00,,,0.00,0,weatherlink.com 1.10,2013-12-14 09:19:00,
2013-12-14 04:34:00,-7.1,-11.0,30.55,South,173,0.0,1.0,81,0.00,,,0.00,0,weatherlink.com 1.10,2013-12-14 09:34:00,
2013-12-14 04:50:00,-6.0,-10.0,30.55,NE,35,1.0,2.0,82,0.00,,,0.00,0,weatherlink.com 1.10,2013-12-14 09:50:00,
2013-12-14 05:05:00,-5.1,-9.0,30.55,NE,49,2.0,3.0,82,0.00,,,0.00,0,weatherlink.com 1.10,2013-12-14 10:05:00,
2013-12-14 05:20:00,-4.5,-9.0,30.55,ENE,64,2.0,4.0,82,0.00,,,0.00,0,weatherlink.com 1.10,2013-12-14 10:20:00,
2013-12-14 05:35:00,-4.8,-10.0,30.56,ENE,68,3.0,4.0,80,0.00,,,0.00,0,weatherlink.com 1.10,2013-12-14 10:35:00,
2013-12-14 05:50:00,-5.2,-10.0,30.56,ENE,63,3.0,4.0,80,0.00,,,0.00,0,weatherlink.com 1.10,2013-12-14 10:50:00,
2013-12-14 06:05:00,-5.0,-10.0,30.56,NNE,26,2.0,4.0,80,0.00,,,0.00,0,weatherlink.com 1.10,2013-12-14 11:05:00,
2013-12-14 06:20:00,-4.8,-10.0,30.57,ENE,57,3.0,5.0,80,0.00,,,0.00,0,weatherlink.com 1.10,2013-12-14 11:20:00,
2013-12-14 06:35:00,-4.7,-9.0,30.57,NE,50,2.0,7.0,80,0.00,,,0.00,0,weatherlink.com 1.10,2013-12-14 11:35:00,
2013-12-14 06:50:00,-4.7,-10.0,30.57,NNE,26,3.0,7.0,79,0.00,,,0.00,0,weatherlink.com 1.10,2013-12-14 11:50:00,
2013-12-14 07:05:00,-4.6,-10.0,30.57,NNE,28,3.0,8.0,79,0.00,,,0.00,0,weatherlink.com 1.10,2013-12-14 12:05:00,
2013-12-14 07:20:00,-4.6,-10.0,30.58,NE,43,4.0,8.0,79,0.00,,,0.00,0,weatherlink.com 1.10,2013-12-14 12:20:00,
2013-12-14 07:35:00,-4.8,-10.0,30.58,NE,34,4.0,7.0,80,0.00,,,0.00,0,weatherlink.com 1.10,2013-12-14 12:35:00,
2013-12-14 07:50:00,-5.0,-10.0,30.57,ESE,102,5.0,9.0,80,0.00,,,0.00,14,weatherlink.com 1.10,2013-12-14 12:50:00,
2013-12-14 08:06:00,-5.2,-10.0,30.57,NNW,348,0.0,8.0,80,0.00,,,0.00,28,weatherlink.com 1.10,2013-12-14 13:06:00,
2013-12-14 08:21:00,-5.3,-10.0,30.57,ESE,103,3.0,11.0,81,0.00,,,0.00,39,weatherlink.com 1.10,2013-12-14 13:21:00,
2013-12-14 08:36:00,-4.9,-9.0,30.57,ENE,59,4.0,9.0,82,0.00,,,0.00,49,weatherlink.com 1.10,2013-12-14 13:36:00,
2013-12-14 08:51:00,-4.3,-8.0,30.58,NE,46,0.0,4.0,82,0.00,,,0.00,60,weatherlink.com 1.10,2013-12-14 13:51:00,
2013-12-14 09:06:00,-3.6,-8.0,30.59,NNE,24,5.0,7.0,81,0.00,,,0.00,70,weatherlink.com 1.10,2013-12-14 14:06:00,
2013-12-14 09:21:00,-3.4,-8.0,30.59,North,5,0.0,9.0,80,0.00,,,0.00,93,weatherlink.com 1.10,2013-12-14 14:21:00,
2013-12-14 09:36:00,-2.4,-7.0,30.59,NE,40,0.0,5.0,80,0.00,,,0.00,116,weatherlink.com 1.10,2013-12-14 14:36:00,
2013-12-14 09:51:00,-1.9,-7.0,30.59,East,97,2.0,8.0,78,0.00,,,0.00,130,weatherlink.com 1.10,2013-12-14 14:51:00,
2013-12-14 10:06:00,-1.0,-7.0,30.59,ENE,67,5.0,7.0,77,0.00,,,0.00,200,weatherlink.com 1.10,2013-12-14 15:06:00,
2013-12-14 10:21:00,-0.1,-6.0,30.59,ENE,65,3.0,7.0,76,0.00,,,0.00,265,weatherlink.com 1.10,2013-12-14 15:21:00,
2013-12-14 10:36:00,0.4,-6.0,30.58,ESE,107,2.0,9.0,75,0.00,,,0.00,241,weatherlink.com 1.10,2013-12-14 15:36:00,
2013-12-14 10:51:00,1.7,-5.0,30.57,NNW,332,4.0,6.0,73,0.00,,,0.00,155,weatherlink.com 1.10,2013-12-14 15:51:00,
2013-12-14 11:06:00,2.1,-5.0,30.57,NE,44,4.0,10.0,71,0.00,,,0.00,128,weatherlink.com 1.10,2013-12-14 16:06:00,
2013-12-14 11:21:00,2.8,-5.0,30.57,NNE,22,1.0,5.0,71,0.00,,,0.00,142,weatherlink.com 1.10,2013-12-14 16:21:00,
2013-12-14 11:37:00,3.1,-4.0,30.55,NNE,30,6.0,12.0,71,0.00,,,0.00,128,weatherlink.com 1.10,2013-12-14 16:37:00,
2013-12-14 11:52:00,3.3,-5.0,30.54,East,80,5.0,11.0,68,0.00,,,0.00,130,weatherlink.com 1.10,2013-12-14 16:52:00,
2013-12-14 12:07:00,3.8,-4.0,30.54,NE,56,2.0,8.0,69,0.00,,,0.00,111,weatherlink.com 1.10,2013-12-14 17:07:00,
2013-12-14 12:22:00,4.6,-4.0,30.53,East,90,5.0,10.0,68,0.00,,,0.00,151,weatherlink.com 1.10,2013-12-14 17:22:00,
2013-12-14 12:37:00,4.5,-4.0,30.52,NNW,335,4.0,11.0,67,0.00,,,0.00,141,weatherlink.com 1.10,2013-12-14 17:37:00,
2013-12-14 12:52:00,4.6,-5.0,30.50,NNE,27,11.0,11.0,66,0.00,,,0.00,127,weatherlink.com 1.10,2013-12-14 17:52:00,
2013-12-14 13:07:00,4.4,-5.0,30.50,NE,42,2.0,13.0,65,0.00,,,0.00,127,weatherlink.com 1.10,2013-12-14 18:07:00,
2013-12-14 13:22:00,5.0,-1.0,30.50,NE,46,4.0,13.0,75,0.00,,,0.00,109,weatherlink.com 1.10,2013-12-14 18:22:00,
2013-12-14 13:37:00,4.6,-4.0,30.49,East,81,5.0,11.0,67,0.00,,,0.00,111,weatherlink.com 1.10,2013-12-14 18:37:00,
2013-12-14 13:52:00,4.7,-4.0,30.47,NNE,12,3.0,13.0,67,0.00,,,0.00,113,weatherlink.com 1.10,2013-12-14 18:52:00,
2013-12-14 14:07:00,4.9,-4.0,30.47,NNE,32,4.0,13.0,68,0.00,,,0.00,116,weatherlink.com 1.10,2013-12-14 19:07:00,
2013-12-14 14:22:00,4.9,-4.0,30.46,NNE,28,3.0,11.0,68,0.00,,,0.00,97,weatherlink.com 1.10,2013-12-14 19:22:00,
2013-12-14 14:37:00,4.8,-4.0,30.45,ENE,65,8.0,12.0,68,0.00,,,0.00,56,weatherlink.com 1.10,2013-12-14 19:37:00,
2013-12-14 14:52:00,4.6,-4.0,30.45,NE,40,6.0,14.0,68,0.00,,,0.00,44,weatherlink.com 1.10,2013-12-14 19:52:00,
2013-12-14 15:08:00,4.6,-4.0,30.44,East,88,10.0,12.0,69,0.00,,,0.00,39,weatherlink.com 1.10,2013-12-14 20:08:00,
2013-12-14 15:23:00,4.6,-4.0,30.43,SE,139,3.0,12.0,69,0.00,,,0.00,37,weatherlink.com 1.10,2013-12-14 20:23:00,
2013-12-14 15:38:00,4.5,-3.0,30.42,NNE,13,4.0,13.0,70,0.00,,,0.00,19,weatherlink.com 1.10,2013-12-14 20:38:00,
2013-12-14 15:53:00,4.6,-3.0,30.40,NE,50,2.0,11.0,70,0.00,,,0.00,11,weatherlink.com 1.10,2013-12-14 20:53:00,
2013-12-14 16:08:00,4.4,-3.0,30.40,ENE,73,4.0,13.0,71,0.00,,,0.00,0,weatherlink.com 1.10,2013-12-14 21:08:00,
2013-12-14 16:23:00,4.2,-3.0,30.38,NE,42,8.0,15.0,73,0.00,,,0.00,0,weatherlink.com 1.10,2013-12-14 21:23:00,
2013-12-14 16:38:00,4.1,-3.0,30.37,NE,40,6.0,18.0,74,0.00,,,0.00,0,weatherlink.com 1.10,2013-12-14 21:38:00,
2013-12-14 16:53:00,3.9,-2.0,30.36,ENE,76,11.0,12.0,75,0.00,,,0.00,0,weatherlink.com 1.10,2013-12-14 21:53:00,
2013-12-14 17:08:00,3.8,-2.0,30.34,NE,53,3.0,14.0,76,0.00,,,0.00,0,weatherlink.com 1.10,2013-12-14 22:08:00,
2013-12-14 17:23:00,3.4,-2.0,30.33,NNE,22,3.0,15.0,77,0.00,,,0.00,0,weatherlink.com 1.10,2013-12-14 22:23:00,
2013-12-14 17:38:00,2.9,-3.0,30.32,NE,51,13.0,17.0,78,0.00,,,0.00,0,weatherlink.com 1.10,2013-12-14 22:38:00,
2013-12-14 17:53:00,2.4,-3.0,30.31,NE,51,9.0,17.0,79,0.00,,,0.00,0,weatherlink.com 1.10,2013-12-14 22:53:00,
2013-12-14 18:08:00,2.5,-2.0,30.31,NNE,22,2.0,12.0,80,0.00,,,0.00,0,weatherlink.com 1.10,2013-12-14 23:08:00,
2013-12-14 18:23:00,2.6,-2.0,30.30,ESE,107,3.0,10.0,82,0.00,,,0.00,0,weatherlink.com 1.10,2013-12-14 23:23:00,
2013-12-14 18:39:00,2.6,-2.0,30.28,NNW,344,5.0,17.0,82,0.00,,,0.00,0,weatherlink.com 1.10,2013-12-14 23:39:00,
2013-12-14 18:54:00,2.5,-2.0,30.27,North,5,3.0,13.0,83,0.00,,,0.00,0,weatherlink.com 1.10,2013-12-14 23:54:00,
2013-12-14 19:09:00,2.6,-1.0,30.26,NE,55,11.0,12.0,83,0.00,,,0.00,0,weatherlink.com 1.10,2013-12-15 00:09:00,
2013-12-14 19:24:00,2.5,-2.0,30.24,SSE,165,9.0,16.0,83,0.00,,,0.00,0,weatherlink.com 1.10,2013-12-15 00:24:00,
2013-12-14 19:39:00,2.6,-1.0,30.24,NNE,26,5.0,17.0,83,0.00,,,0.00,0,weatherlink.com 1.10,2013-12-15 00:39:00,
2013-12-14 19:54:00,2.7,-1.0,30.23,NNE,26,4.0,11.0,84,0.00,,,0.00,0,weatherlink.com 1.10,2013-12-15 00:54:00,
2013-12-14 20:09:00,2.8,-1.0,30.21,NNE,30,5.0,17.0,83,0.00,,,0.00,0,weatherlink.com 1.10,2013-12-15 01:09:00,
2013-12-14 20:24:00,2.9,-1.0,30.20,ENE,65,8.0,17.0,84,0.00,,,0.00,0,weatherlink.com 1.10,2013-12-15 01:24:00,
2013-12-14 20:39:00,2.8,-1.0,30.18,NNW,344,5.0,13.0,84,0.00,,,0.00,0,weatherlink.com 1.10,2013-12-15 01:39:00,
2013-12-14 20:54:00,2.7,-1.0,30.17,ENE,78,3.0,14.0,84,0.00,,,0.00,0,weatherlink.com 1.10,2013-12-15 01:54:00,
2013-12-14 21:09:00,2.5,-1.0,30.16,NE,42,5.0,14.0,84,0.00,,,0.00,0,weatherlink.com 1.10,2013-12-15 02:09:00,
2013-12-14 21:24:00,2.5,-1.0,30.16,ENE,57,8.0,14.0,84,0.00,,,0.00,0,weatherlink.com 1.10,2013-12-15 02:24:00,
2013-12-14 21:39:00,2.3,-1.0,30.14,NNE,28,8.0,12.0,84,0.00,,,0.00,0,weatherlink.com 1.10,2013-12-15 02:39:00,
2013-12-14 21:55:00,2.1,-2.0,30.12,NE,40,7.0,15.0,84,0.00,,,0.00,0,weatherlink.com 1.10,2013-12-15 02:55:00,
2013-12-14 22:10:00,2.1,-2.0,30.11,ENE,70,9.0,13.0,84,0.00,,,0.00,0,weatherlink.com 1.10,2013-12-15 03:10:00,
2013-12-14 22:25:00,2.2,-2.0,30.10,NE,40,7.0,13.0,84,0.00,,,0.00,0,weatherlink.com 1.10,2013-12-15 03:25:00,
2013-12-14 22:40:00,2.2,-2.0,30.08,ENE,62,7.0,10.0,84,0.00,,,0.00,0,weatherlink.com 1.10,2013-12-15 03:40:00,
2013-12-14 22:55:00,2.3,-1.0,30.07,East,94,6.0,12.0,85,0.00,,,0.00,0,weatherlink.com 1.10,2013-12-15 03:55:00,
2013-12-14 23:10:00,2.5,-1.0,30.05,NNE,18,2.0,13.0,85,0.00,,,0.00,0,weatherlink.com 1.10,2013-12-15 04:10:00,
2013-12-14 23:25:00,2.6,-1.0,30.03,ENE,75,7.0,13.0,84,0.00,,,0.00,0,weatherlink.com 1.10,2013-12-15 04:25:00,
2013-12-14 23:40:00,2.8,-1.0,30.02,NNE,22,7.0,13.0,85,0.00,,,0.00,0,weatherlink.com 1.10,2013-12-15 04:40:00,
2013-12-14 23:55:00,2.9,-1.0,30.00,NNW,343,4.0,12.0,85,0.00,,,0.00,0,weatherlink.com 1.10,2013-12-15 04:55:00,